Weather History for 78762 - September, 2012

Change the Weather History Date:

Saturday, September 22, 2012

  Actual Average Record
Temperature  
Mean Temperature 73 °F -  
Max Temperature 81 °F 78 °F - ()
Min Temperature 65 °F 64 °F - ()
Cooling Degree Days 8    
Growing Degree Days 23 (Base 50)    
Moisture  
Dew Point 65 °F    
Average Humidity 80    
Maximum Humidity 94    
Minimum Humidity 44    
Precipitation  
Precipitation 0.20 in 0.44 in - ()
Sea Level Pressure  
Sea Level Pressure 29.95 in    
Wind  
Wind Speed 5 mph ()    
Max Wind Speed 9 mph    
Max Gust Speed -    
Visibility 7.9 miles    
Events Rain , Thunderstorm    
T = Trace of Precipitation, MM = Missing Value Source: Averaged Metar Reports

Daily Weather History Graph

Daily Weather History Graph

Search for Another Location

Airport or City:

Trip Planner

Search our weather history database for the weather conditions in past years. The results will help you decide how hot, cold, wet, or windy it might be!

Date:

Astronomy

Sep. 22, 2012 Rise Set
Actual Time 5:26 AM CST 5:32 PM CST
Civil Twilight 5:05 AM CST 5:53 PM CST
Nautical Twilight 4:40 AM CST 6:17 PM CST
Astronomical Twilight 4:16 AM CST 6:42 PM CST
Moon 11:40 AM CST (9/22) 11:36 PM CST (9/22)
Length of Visible Light 12h 48m
Length of Day
12h 06m
Waxing Crescent, 49% of the Moon is Illuminated
Sep 22
Waxing Crescent
Sep 22
First Quarter
Sep 29
Full
Oct 8
Last Quarter
Oct 15
New

Hourly Weather History & Observations

Time (CST) Temp. Heat Index Dew Point Humidity Pressure Visibility Wind Dir Wind Speed Gust Speed Precip Events Conditions
12:00 AM 67 °F - 64 °F 88% 29.79 in 12 mi East 3.5 mph - -   Clear
12:00 AM 68.0 °F - 64.4 °F 88% 29.97 in - East 3.5 mph - N/A   Clear
1:00 AM 66.2 °F - 62.6 °F 88% 29.95 in - NNE 4.6 mph - N/A   Clear
2:00 AM 68.0 °F - 62.6 °F 83% 29.95 in - NE 5.8 mph - N/A   Clear
3:00 AM 67 °F - 61 °F 75% 29.83 in 12 mi ENE 3.5 mph - -   Clear
3:00 AM 66.2 °F - 60.8 °F 83% 29.94 in - ENE 3.5 mph - N/A   Clear
4:00 AM 66.2 °F - 60.8 °F 83% 29.94 in - ENE 4.6 mph - N/A   Clear
5:00 AM 68.0 °F - 59.0 °F 73% 29.96 in - East 3.5 mph - N/A   Clear
6:00 AM 67 °F - 59 °F 70% 29.84 in 12 mi ENE 5.8 mph - -   Scattered Clouds
6:00 AM 66.2 °F - 59.0 °F 78% 29.98 in - ENE 5.8 mph - N/A   Clear
7:00 AM 71.6 °F - 60.8 °F 69% 29.99 in - ENE 4.6 mph - N/A   Clear
8:00 AM 75.2 °F - 62.6 °F 65% 30.02 in - SW 3.5 mph - N/A   Clear
9:00 AM 81 °F - 63 °F 44% 29.84 in 12 mi South 3.5 mph - -   Scattered Clouds
9:00 AM 80.6 °F 81.8 °F 62.6 °F 54% 30.02 in - South 3.5 mph - N/A   Clear
10:00 AM 77.0 °F - 66.2 °F 69% 30.01 in 6.2 mi WSW 8.1 mph - N/A   Scattered Clouds
11:00 AM 77.0 °F - 66.2 °F 69% 30.00 in 6.2 mi WSW 9.2 mph - N/A   Mostly Cloudy
12:00 PM 76 °F - 67 °F 67% 29.83 in 12 mi SW 8.1 mph - -   Overcast
12:00 PM 75.2 °F - 68.0 °F 78% 29.99 in 6.2 mi SW 8.1 mph - N/A   Mostly Cloudy
1:00 PM 77.0 °F - 68.0 °F 74% 29.97 in 6.2 mi WSW 8.1 mph - N/A   Mostly Cloudy
1:38 PM 75.2 °F - 66.2 °F 73% 29.95 in 6.2 mi SW 8.1 mph - N/A Rain , Thunderstorm Rain Showers
2:00 PM 71.6 °F - 68.0 °F 88% 29.95 in 4.3 mi SSW 6.9 mph - N/A Rain , Thunderstorm Heavy Rain Showers
2:22 PM 71.6 °F - 68.0 °F 88% 29.96 in 6.2 mi SW 5.8 mph - N/A Rain Light Rain
3:00 PM 73 °F - 69 °F 82% 29.82 in 9 mi SW 8.1 mph - - Rain Light Rain
3:00 PM 73.4 °F - 68.0 °F 83% 29.94 in 6.2 mi SW 8.1 mph - N/A Rain Light Rain
4:00 PM 71.6 °F - 68.0 °F 88% 29.95 in 6.2 mi WSW 8.1 mph - N/A Rain Light Rain
5:00 PM 69.8 °F - 66.2 °F 88% 29.98 in 6.2 mi WSW 6.9 mph - N/A Rain Light Rain
6:00 PM 68 °F - 66 °F 90% 29.87 in 9 mi West 8.1 mph - - Rain Light Rain
6:00 PM 68.0 °F - 66.2 °F 94% 30.00 in 6.2 mi West 8.1 mph - N/A Rain Light Rain
7:00 PM 68.0 °F - 66.2 °F 94% 30.02 in 6.2 mi NW 4.6 mph - N/A   Light Drizzle
8:00 PM 69.8 °F - 64.4 °F 83% 30.04 in 6.2 mi NW 2.3 mph - N/A   Mostly Cloudy
9:00 PM 68 °F - 65 °F 89% 29.85 in 12 mi ESE 2.3 mph - -   Mostly Cloudy
9:00 PM 68.0 °F - 66.2 °F 94% 30.04 in 6.2 mi ESE 2.3 mph - N/A   Mostly Cloudy
10:00 PM 68.0 °F - 64.4 °F 88% 30.02 in 6.2 mi ESE 3.5 mph - N/A   Mostly Cloudy
11:00 PM 68.0 °F - 64.4 °F 88% 30.01 in - East 3.5 mph - N/A   Clear